Regional Weather Roundup
Issued by NWS Wakefield, VA

Home | Current Version | Previous Version | Graphics & Text | Print | Product List | Glossary On
Versions: 1 2 3 4 5 6 7 8 9 10 11 12 13 14 15 16 17 18 19 20 21 22 23 24 25 26 27 28 29 30 31 32 33 34 35 36 37 38 39 40 41 42 43 44 45 46 47 48 49 50
000
ASUS41 KAKQ 051914
RWRAKQ

REGIONAL WEATHER ROUNDUP
NATIONAL WEATHER SERVICE WAKEFIELD VA
200 PM EST FRI FEB 05 2016

Note: "fair" indicates few or no clouds below 12,000 feet with no
significant weather and/or obstructions to visibility. * = Denotes
station may not report precipitation (e.g., rain,snow,etc.),
thunder or fog.

VAZ042-051-052>054-056-052000-
NORTHERN VIRGINIA

CITY           SKY/WX    TMP DP  RH WIND       PRES   REMARKS
WASH NATIONAL  FAIR      43  20  39 NW15G23   30.28F
DULLES         FAIR      40  18  41 NW17      30.29S
FORT BELVOIR   FAIR      42  17  36 NW18G26   30.28F
QUANTICO       FAIR      44  19  36 NW16G30   30.31S
FREDERICKSBRG* FAIR      43  21  42 NW10G20   30.28F
STAFFORD*      FAIR      42  18  37 NW15G23   30.33F
WARRENTON      FAIR      43  24  46 NW15      30.29F
CULPEPER*      FAIR      41  19  40 N10G18    30.30F
MANASSAS*      PTSUNNY   43  19  39 NW21      30.30S
LEESBURG*      FAIR      43  27  52 NW18G24   30.29F
WINCHESTER     PTSUNNY   37  21  52 NW16G24   30.29F
FRONT ROYAL*   FAIR      37  18  44 NW7       30.29F
LURAY*         FAIR      37  16  41 NW15      30.29S
$$

VAZ048-049-060>072-079>083-052000-
CENTRAL AND SOUTH CENTRAL VIRGINIA

CITY           SKY/WX    TMP DP  RH WIND       PRES   REMARKS
RICHMOND       FAIR      41  23  48 N12       30.29S
CHESTERFIELD*  FAIR      46  19  34 NW10      30.31
PETERSBURG*    FAIR      46  18  32 W10       30.29F
HANOVER        FAIR      44  22  41 N9G17     30.30F
TAPPAHANNOCK*  FAIR      43  24  46 N9        30.28S
QUINTON*       MOCLDY    43  24  46 W12       30.29S
CHARLOTTSVILLE FAIR      42  14  32 N7G22     30.29F
GORDONSVILLE*  FAIR      42  17  36 NW7       30.29F
ORANGE*        FAIR      43  19  39 NW8G16    30.31F
LOUISA*        FAIR      45  19  36 NW9       30.28S
BUMPASS*       FAIR      42  19  40 NW5       30.29S
FARMVILLE*     FAIR      46  17  31 N7        30.29S
CREWE*         FAIR      44  19  37 NW8       30.29F
FORT PICKETT*  FAIR      43  21  41 N13       30.29F
CHASE CITY*    FAIR      44  15  31 N8G18     30.29F
CLARKSVILLE*   FAIR      45  18  33 NW8       30.29F
SOUTH HILL*    FAIR      43  23  45 N10G16    30.34F
LAWRENCEVILLE* FAIR      43  25  48 NW14G20   30.28F
EMPORIA*       FAIR      43  27  52 NW10G17   30.30F
$$

VAZ088>098-052000-
SOUTHEAST VIRGINIA

CITY           SKY/WX    TMP DP  RH WIND       PRES   REMARKS
NORFOLK        FAIR      43  25  49 N10G20    30.27S
VIRGINIA BEACH FAIR      46  29  51 NW23G31   30.26S
NORFOLK NAVAL  FAIR      46  29  51 NW17      30.30R
WEST POINT*    FAIR      42  23  46 N9G18     30.31S
SALUDA*        FAIR      43  28  56 NW12G20   30.28S
NEWPORT NEWS   FAIR      44  29  55 NW13      30.28S
LANGLEY AFB    FAIR      43  28  54 N14G24    30.27R
FORT EUSTIS    FAIR      45  26  48 NW10G17   30.26F
WILLIAMSBURG*  FAIR      48  30  49 N10G22    30.29S
HR EXEC AP*    FAIR      45  28  53 N8        30.29F
FRANKLIN*      FAIR      43  27  53 NW8       30.29F
US460-WAKEFLD  FAIR      45  25  45 VRB7      30.28F
$$

VAZ020-022-025-037-045-052000-
WEST CENTRAL AND SOUTHWEST VIRGINIA

CITY           SKY/WX    TMP DP  RH WIND       PRES   REMARKS
STAUNTON*      FAIR      43  13  29 N12       30.30S
WAYNESBORO*    FAIR      40   9  28 NW9       30.27F
HOT SPRINGS VA FLURRIES  31   8  39 NW12G25   30.17S WCI  21
LYNCHBURG      FAIR      42  13  30 NW9G17    30.30F
DANVILLE       FAIR      46  18  32 N12       30.31F
SOUTH BOSTON*  FAIR      46  13  26 N8G20     30.30F
MARTINSVILLE   FAIR      42  13  31 N13G18    30.33S
ROANOKE        FAIR      42  13  30 N15       30.32F
BLACKSBURG     FAIR      37  15  40 NW10G20   30.30F
DUBLIN*        FAIR      38  13  35 N10G16    30.30F
MARION*        FAIR      36  11  36 N10G17    30.31S
HILLSVILLE*    FAIR      34  12  41 N13G21    30.25S WCI  25
RICHLANDS*     FAIR      33  10  39 N8G16     30.30F
WISE*          FAIR      36   5  27 N8        30.32F
ABINGDON*      FAIR      38   8  28 N6        30.33S
$$

MDZ021>025-VAZ099-100-052000-
SOUTHERN MARYLAND AND THE DELMARVA PENINSULA

CITY           SKY/WX    TMP DP  RH WIND       PRES   REMARKS
PATUXENT RIVER MOSUNNY   43  25  49 NW21G26   30.26S
BAY BRIDGE APT   N/A     43  25  49 NW18      30.25R
LEONARDTOWN    SUNNY     41  23  48 W12G23    30.28R
DOVER          PTSUNNY   41  29  61 NW23G29   30.19R
GEORGETOWN     CLOUDY    41  26  55 N10G22    30.21R
EASTON         PTSUNNY   41  32  70 NW13G23   30.27R
CAMBRIDGE      MOSUNNY   41  30  65 NW16G26   30.24S
SALISBURY      PTSUNNY   42  32  67 NW10G23   30.22R
OCEAN CITY     PTSUNNY   43  28  55 N15G24    30.20R
WALLOPS ISLAND PTSUNNY   42  31  64 NW21G28   30.23R
ACCOMACK*      FAIR      41  30  65 NW21G31   30.25S
$$

NCZ012>017-030>032-052000-
NORTH CENTRAL AND EASTERN NORTH CAROLINA

CITY           SKY/WX    TMP DP  RH WIND       PRES   REMARKS
ROANOKE RAPIDS FAIR      43  25  49 N14       30.28F
RALEIGH        SUNNY     46  21  37 VRB7G17   30.30F
ELIZABETH CITY MOSUNNY   44  30  57 NW21      30.26F
AHOSKIE*       SUNNY     43  26  50 N8        30.28F
EDENTON*       MOSUNNY   46  33  59 N20       30.27F
CURRITUCK*     MOSUNNY   44  32  63 NW14      30.28R
KILL DEVIL HLS CLOUDY    41  32  71 NW8G20    30.25S
MANTEO         CLOUDY    41  33  73 N15G23    30.26S
CAPE HATTERAS  CLOUDY   N/A N/A N/A N13G21    30.25S
TARBORO*       FAIR      47  30  50 N10G16    30.29F
GOLDSBORO      SUNNY     46  27  46 N12G17    30.25F
WASHINGTON     MOSUNNY   45  30  55 NW6       30.27F
GREENVILLE     PTSUNNY   45  32  61 N13G20    30.29S
NEW BERN       CLOUDY    45  31  58 N15       30.27F
WILMINGTON     CLOUDY    47  30  51 NW14G21   30.28S
$$

VAZ048-052000-
ELSEWHERE

CITY           SKY/WX    TMP DP  RH WIND       PRES   REMARKS
HARRISBURG PA  PTSUNNY   37  24  59 N8        30.23R
BALTIMORE      MOSUNNY   42  23  46 W17G25    30.24S
ANNAPOLIS      MOSUNNY   42  22  44 NW15G28   30.25R
ANDREWS AFB    FAIR      41  21  43 NW15G26   30.25S
PHILADELPHIA   PTSUNNY   42  20  41 NW15      30.17S
HENDERSON NC   SUNNY     45  18  34 N9        30.28F
GREENSBORO     SUNNY     44  12  27 N7G16     30.30S
ROCKY MOUNT    SUNNY     46  26  45 N13       30.27F
$$

VAZ100-052000-
MARINE

STATION/POSITION TIME  TEMP    WIND        PRES    WAVE   SWELL
                       AIR SEA DIR/SP/G            HT/PER HT/PER
                 (UTC) (F)     (DEG/KT/KT) (MB)    (FT/S) (FT/S)
BRANDYWINE LGT   1800   38     330/ 12/ 17 1022.0R
CAPE MAY NJ      1800   40 42  320/ 12/ 17 1021.8R
LEWES DE         1800   40 42  330/ 19/ 22 1022.1R
15NM E FENWICK I 1850   39 45              1021.9R   9/ 9
OCEAN-CITY-INLET 1800   40 43  350/ 15/ 19 1021.5R
WACHAPREAGUE VA  1800   42 46  290/  5/ 11 1023.8R
THOMAS POINT MD  1800   40 40  300/ 20/ 24 1024.1
GOOSES REEF MD   1900   42 40  320/ 17/ 23 1025.2R   2/ 3
COVE POINT MD    1800   39     330/ 20/ 25 1025.0R
SOLOMONS ISLAND  1800   40 41  310/ 14/ 19   N/A
BISHOPS HEAD MD  1800   39 40  310/ 21/ 27 1023.5R
POTOMAC MD       1900   40 41  310/ 17/ 21 1024.4R   2/ 3
CAMBRIDGE MD     1800   39 41  300/ 15/ 25 1023.1R
LEWISETTA VA     1800   40 44  320/ 20/ 25 1024.8F
RAPPAHANNOCK LGT 1800          300/ 24/ 29 1024.5R
STINGRAY PT      1900   41 43  330/ 14/ 17 1025.2R   2/ 3
YORK RVR RNG VA  1800   40     330/ 18/ 22 1024.4R
YORKTOWN VA      1800   40 45  310/ 21/ 26 1024.9F
JAMESTOWN VA     1900   42 44  310/ 14/ 17   N/A
DOMINION TERM VA 1800   40     330/ 18/ 22 1025.3R
KIPTOPEKE VA     1800      44  320/ 25/ 28   N/A
CHES BAY BRIDGE  1800   40 43  290/ 22/ 27 1024.6R
CAPE HENRY VA    1800   40     310/ 22/ 28   N/A
CHESAPEAKE LGHT  1800   40     330/ 31/ 33 1024.6R
WILLOUBY STN VA  1800   40     310/ 21/ 25 1025.9R
CAPE HENRY BUOY  1828      47                N/A     7/ 7   2/11
1ST LANDING BUOY 1900      43                N/A     4/ 3
CAPE CHARLES BUO 1826      45                N/A     6/ 8   3/ 8
OFFSHORE WE BUOY 1821      48                N/A     9/ 8   5/12
64NM E OF VA BCH 1850   43 54  330/ 27/ 35 1022.5R  12/ 8   7/10
DUCK PIER NC     1800   40 46  330/ 24/ 27 1023.5R
44100 DUCK FRF   1824      47                N/A     9/ 8   2/11
44056 DUCK FRF   1811      45                N/A     7/ 7   2/11
OREGON INLET NC  1800   41 48  320/ 18/ 25 1024.1R
HATTERAS NC      1800   42 54  330/ 27/ 31 1023.9R
DIAMOND SHLS NC  1850      69  350/ 25/ 33 1023.4R   8/ 9   3/ 9
$$



USA.gov is the U.S. government's official web portal to all federal, state and local government web resources and services.